Terminal Aerodrome Forecast
Issued by NWS

Current Version | Previous Version | Graphics & Text | Print | Product List | Glossary On
Versions: 1 2 3 4 5 6 7 8 9 10 11 12 13 14 15 16
000
FTUS41 KPBZ 221100
TAFMGW
TAF
KMGW 221139Z 2212/2312 11005KT P6SM SCT250
     FM221900 12006KT P6SM BKN045
     FM230700 12007KT 5SM BR OVC030 PROB30 2308/2312 4SM -RA BR
      OVC025=

USA.gov is the U.S. government's official web portal to all federal, state and local government web resources and services.